| time (UTC) | temp F | wind direction | speed MPH | gust MPH | rain 1hr in | rain 24hr in | rain mn in | humidity % | barometer mb |
| 20260906220659 | 57 | 202 | 7.0 | 9.0 | 0.00 | 0.00 | 0.00 | 75 | 1018.0 |
| 20260906220154 | 57 | 171 | 5.0 | 11.0 | 0.00 | 0.00 | 0.00 | 75 | 1018.0 |
| 20260906215648 | 57 | 207 | 7.0 | 8.0 | 0.00 | 0.00 | 0.00 | 75 | 1018.0 |
| 20260906215144 | 57 | 220 | 6.0 | 10.0 | 0.00 | 0.00 | 0.00 | 75 | 1018.0 |
| 20260906214638 | 57 | 193 | 6.0 | 8.0 | 0.00 | 0.00 | 0.00 | 75 | 1018.0 |
| 20260906214133 | 57 | 216 | 7.0 | 8.0 | 0.00 | 0.00 | 0.00 | 74 | 1018.1 |
| 20260906213628 | 57 | 225 | 6.0 | 12.0 | 0.00 | 0.00 | 0.00 | 74 | 1018.1 |
| 20260906213122 | 57 | 193 | 3.0 | 8.0 | 0.00 | 0.00 | 0.00 | 74 | 1018.1 |
| 20260906212618 | 57 | 220 | 5.0 | 9.0 | 0.00 | 0.00 | 0.00 | 74 | 1018.1 |
| 20260906212112 | 57 | 225 | 5.0 | 7.0 | 0.00 | 0.00 | 0.00 | 74 | 1018.2 |
| 20260906211607 | 58 | 225 | 5.0 | 8.0 | 0.00 | 0.00 | 0.00 | 74 | 1018.2 |
| 20260906211102 | 58 | 216 | 5.0 | 9.0 | 0.00 | 0.00 | 0.00 | 74 | 1018.2 |
| 20260906210556 | 58 | 225 | 6.0 | 8.0 | 0.00 | 0.00 | 0.00 | 74 | 1018.1 |
| 20260906210052 | 58 | 225 | 4.0 | 11.0 | 0.00 | 0.00 | 0.00 | 74 | 1018.2 |
| 20260906205546 | 58 | 216 | 6.0 | 10.0 | 0.00 | 0.00 | 0.00 | 74 | 1018.1 |
| 20260906205041 | 57 | 225 | 9.0 | 10.0 | 0.00 | 0.00 | 0.00 | 75 | 1018.2 |
| 20260906204536 | 57 | 207 | 7.0 | 9.0 | 0.00 | 0.00 | 0.00 | 74 | 1018.1 |
| 20260906204030 | 57 | 216 | 7.0 | 8.0 | 0.00 | 0.00 | 0.00 | 74 | 1018.1 |
| 20260906203526 | 57 | 202 | 4.0 | 6.0 | 0.00 | 0.00 | 0.00 | 74 | 1018.1 |
| 20260906203020 | 56 | 207 | 5.0 | 8.0 | 0.00 | 0.00 | 0.00 | 73 | 1018.1 |
| 20260906202515 | 56 | 225 | 3.0 | 5.0 | 0.00 | 0.00 | 0.00 | 73 | 1018.1 |
| 20260906202010 | 56 | 184 | 4.0 | 5.0 | 0.00 | 0.00 | 0.00 | 73 | 1018.1 |
| 20260906201504 | 56 | 198 | 3.0 | 5.0 | 0.00 | 0.00 | 0.00 | 73 | 1018.1 |
| 20260906201000 | 56 | 202 | 3.0 | 6.0 | 0.00 | 0.00 | 0.00 | 72 | 1018.1 |
| 20260906200454 | 56 | 180 | 3.0 | 5.0 | 0.00 | 0.00 | 0.00 | 72 | 1018.1 |
| 20260906195949 | 56 | 180 | 3.0 | 6.0 | 0.00 | 0.00 | 0.00 | 71 | 1018.0 |
| 20260906195444 | 56 | 180 | 3.0 | 5.0 | 0.00 | 0.00 | 0.00 | 71 | 1018.0 |
| 20260906194938 | 56 | 180 | 4.0 | 4.0 | 0.00 | 0.00 | 0.00 | 70 | 1018.1 |
| 20260906194434 | 56 | 189 | 3.0 | 6.0 | 0.00 | 0.00 | 0.00 | 70 | 1018.2 |
| 20260906193928 | 56 | 211 | 5.0 | 6.0 | 0.00 | 0.00 | 0.00 | 70 | 1018.2 |
| 20260906193423 | 56 | 211 | 4.0 | 10.0 | 0.00 | 0.00 | 0.00 | 70 | 1018.2 |
| 20260906192918 | 56 | 211 | 6.0 | 8.0 | 0.00 | 0.00 | 0.00 | 70 | 1018.3 |
| 20260906192413 | 57 | 189 | 5.0 | 7.0 | 0.00 | 0.00 | 0.00 | 70 | 1018.2 |
| 20260906191908 | 57 | 225 | 6.0 | 8.0 | 0.00 | 0.00 | 0.00 | 70 | 1018.5 |
| 20260906191402 | 57 | 193 | 4.0 | 7.0 | 0.00 | 0.00 | 0.00 | 70 | 1018.5 |
| 20260906190857 | 57 | 211 | 6.0 | 8.0 | 0.00 | 0.00 | 0.00 | 69 | 1018.5 |
| 20260906190352 | 56 | 193 | 4.0 | 4.0 | 0.00 | 0.00 | 0.00 | 70 | 1018.4 |
| 20260906185847 | 56 | 184 | 5.0 | 7.0 | 0.00 | 0.00 | 0.00 | 69 | 1018.5 |
| 20260906185342 | 56 | 184 | 6.0 | 6.0 | 0.00 | 0.00 | 0.00 | 69 | 1018.4 |
| 20260906184836 | 56 | 189 | 3.0 | 6.0 | 0.00 | 0.00 | 0.00 | 68 | 1018.5 |
| 20260906184331 | 56 | 193 | 3.0 | 7.0 | 0.00 | 0.00 | 0.00 | 67 | 1018.4 |
| 20260906183826 | 56 | 211 | 3.0 | 6.0 | 0.00 | 0.00 | 0.00 | 67 | 1018.5 |
| 20260906183320 | 57 | 180 | 2.0 | 5.0 | 0.00 | 0.00 | 0.00 | 67 | 1018.6 |
| 20260906182816 | 57 | 225 | 6.0 | 9.0 | 0.00 | 0.00 | 0.00 | 67 | 1018.6 |
| 20260906182310 | 57 | 261 | 6.0 | 10.0 | 0.00 | 0.00 | 0.00 | 66 | 1018.7 |
| 20260906181805 | 57 | 229 | 7.0 | 12.0 | 0.00 | 0.00 | 0.00 | 67 | 1018.7 |
| 20260906181300 | 57 | 225 | 8.0 | 10.0 | 0.00 | 0.00 | 0.00 | 66 | 1018.6 |
| 20260906180755 | 57 | 234 | 7.0 | 7.0 | 0.00 | 0.00 | 0.00 | 65 | 1018.6 |
| 20260906180250 | 57 | 184 | 3.0 | 7.0 | 0.00 | 0.00 | 0.00 | 64 | 1018.5 |
| 20260906175744 | 57 | 225 | 7.0 | 7.0 | 0.00 | 0.00 | 0.00 | 65 | 1018.5 |
| 20260906175239 | 57 | 225 | 6.0 | 8.0 | 0.00 | 0.00 | 0.00 | 64 | 1018.5 |
| 20260906174734 | 57 | 234 | 5.0 | 8.0 | 0.00 | 0.00 | 0.00 | 63 | 1018.5 |
| 20260906174229 | 58 | 225 | 5.0 | 7.0 | 0.00 | 0.00 | 0.00 | 63 | 1018.5 |
| 20260906173724 | 58 | 225 | 7.0 | 10.0 | 0.00 | 0.00 | 0.00 | 62 | 1018.5 |
| 20260906173218 | 58 | 261 | 7.0 | 9.0 | 0.00 | 0.00 | 0.00 | 63 | 1018.6 |
| 20260906172713 | 58 | 270 | 8.0 | 11.0 | 0.00 | 0.00 | 0.00 | 62 | 1018.6 |
| 20260906172208 | 58 | 265 | 6.0 | 12.0 | 0.00 | 0.00 | 0.00 | 62 | 1018.6 |
| 20260906171703 | 58 | 270 | 8.0 | 10.0 | 0.00 | 0.00 | 0.00 | 62 | 1018.5 |
| 20260906171158 | 58 | 283 | 9.0 | 13.0 | 0.00 | 0.00 | 0.00 | 62 | 1018.6 |
| 20260906170652 | 58 | 265 | 7.0 | 9.0 | 0.00 | 0.00 | 0.00 | 62 | 1018.6 |
| 20260906170147 | 58 | 234 | 8.0 | 9.0 | 0.00 | 0.00 | 0.00 | 61 | 1018.5 |
| 20260906165642 | 58 | 238 | 10.0 | 10.0 | 0.00 | 0.00 | 0.00 | 61 | 1018.5 |
| 20260906165137 | 58 | 252 | 4.0 | 7.0 | 0.00 | 0.00 | 0.00 | 61 | 1018.7 |
| 20260906164632 | 58 | 256 | 8.0 | 9.0 | 0.00 | 0.00 | 0.00 | 60 | 1018.6 |
| 20260906164126 | 58 | 225 | 8.0 | 11.0 | 0.00 | 0.00 | 0.00 | 60 | 1018.6 |
| 20260906163621 | 58 | 216 | 8.0 | 8.0 | 0.00 | 0.00 | 0.00 | 60 | 1018.7 |
| 20260906163116 | 58 | 270 | 4.0 | 8.0 | 0.00 | 0.00 | 0.00 | 59 | 1018.8 |
| 20260906162611 | 58 | 261 | 13.0 | 13.0 | 0.00 | 0.00 | 0.00 | 60 | 1018.8 |
| 20260906162106 | 58 | 229 | 8.0 | 13.0 | 0.00 | 0.00 | 0.00 | 59 | 1018.7 |
| 20260906161600 | 58 | 270 | 12.0 | 12.0 | 0.00 | 0.00 | 0.00 | 59 | 1018.7 |
| 20260906161055 | 59 | 252 | 10.0 | 14.0 | 0.00 | 0.00 | 0.00 | 58 | 1018.7 |
| 20260906160550 | 59 | 247 | 14.0 | 14.0 | 0.00 | 0.00 | 0.00 | 58 | 1018.7 |
| 20260906160045 | 59 | 315 | 6.0 | 9.0 | 0.00 | 0.00 | 0.00 | 57 | 1018.7 |
| 20260906155540 | 60 | 261 | 9.0 | 15.0 | 0.00 | 0.00 | 0.00 | 57 | 1018.7 |
| 20260906155034 | 59 | 252 | 4.0 | 12.0 | 0.00 | 0.00 | 0.00 | 59 | 1018.7 |
| 20260906154529 | 59 | 261 | 10.0 | 15.0 | 0.00 | 0.00 | 0.00 | 57 | 1018.7 |
| 20260906154024 | 59 | 265 | 14.0 | 15.0 | 0.00 | 0.00 | 0.00 | 57 | 1018.5 |
| 20260906153519 | 59 | 252 | 8.0 | 13.0 | 0.00 | 0.00 | 0.00 | 56 | 1018.6 |
| 20260906153014 | 59 | 229 | 9.0 | 15.0 | 0.00 | 0.00 | 0.00 | 56 | 1018.6 |
| 20260906152508 | 60 | 270 | 9.0 | 16.0 | 0.00 | 0.00 | 0.00 | 55 | 1018.6 |
| 20260906152003 | 60 | 297 | 5.0 | 19.0 | 0.00 | 0.00 | 0.00 | 54 | 1018.6 |
| 20260906151458 | 62 | 279 | 11.0 | 17.0 | 0.00 | 0.00 | 0.00 | 55 | 1018.6 |
| 20260906150953 | 62 | 252 | 12.0 | 20.0 | 0.00 | 0.00 | 0.00 | 56 | 1018.6 |
| 20260906150448 | 61 | 101 | 6.0 | 17.0 | 0.00 | 0.00 | 0.00 | 57 | 1018.6 |
| 20260906145942 | 61 | 270 | 16.0 | 18.0 | 0.00 | 0.00 | 0.00 | 56 | 1018.6 |
| 20260906145437 | 61 | 297 | 14.0 | 22.0 | 0.00 | 0.00 | 0.00 | 55 | 1018.7 |
| 20260906144932 | 62 | 261 | 10.0 | 17.0 | 0.00 | 0.00 | 0.00 | 56 | 1018.7 |
| 20260906144427 | 61 | 277 | 2.0 | 14.0 | 0.00 | 0.00 | 0.00 | 57 | 1018.6 |
| 20260906143922 | 61 | 243 | 8.0 | 11.0 | 0.00 | 0.00 | 0.00 | 58 | 1018.6 |
| 20260906143416 | 62 | 315 | 3.0 | 13.0 | 0.00 | 0.00 | 0.00 | 58 | 1018.6 |
| 20260906142911 | 62 | 288 | 4.0 | 19.0 | 0.00 | 0.00 | 0.00 | 57 | 1018.5 |
| 20260906142406 | 62 | 315 | 10.0 | 20.0 | 0.00 | 0.00 | 0.00 | 56 | 1018.5 |
| 20260906141901 | 61 | 261 | 5.0 | 15.0 | 0.00 | 0.00 | 0.00 | 57 | 1018.6 |
| 20260906141356 | 61 | 234 | 15.0 | 21.0 | 0.00 | 0.00 | 0.00 | 56 | 1018.5 |
| 20260906140850 | 62 | 261 | 16.0 | 23.0 | 0.00 | 0.00 | 0.00 | 55 | 1018.7 |
| 20260906140345 | 62 | 252 | 10.0 | 19.0 | 0.00 | 0.00 | 0.00 | 56 | 1018.5 |
| 20260906135840 | 62 | 252 | 7.0 | 13.0 | 0.00 | 0.00 | 0.00 | 55 | 1018.3 |
| 20260906135335 | 63 | 270 | 12.0 | 14.0 | 0.00 | 0.00 | 0.00 | 55 | 1018.4 |
| 20260906134830 | 63 | 261 | 8.0 | 20.0 | 0.00 | 0.00 | 0.00 | 54 | 1018.4 |
| 20260906134324 | 63 | 252 | 8.0 | 22.0 | 0.00 | 0.00 | 0.00 | 53 | 1018.4 |
| 20260906133819 | 64 | 279 | 20.0 | 20.0 | 0.00 | 0.00 | 0.00 | 55 | 1018.4 |
| 20260906133314 | 64 | 225 | 10.0 | 16.0 | 0.00 | 0.00 | 0.00 | 53 | 1018.3 |
| 20260906132809 | 65 | 292 | 5.0 | 20.0 | 0.00 | 0.00 | 0.00 | 54 | 1018.3 |
| 20260906132306 | 64 | 351 | 6.0 | 11.0 | 0.00 | 0.00 | 0.00 | 54 | 1018.3 |
| 20260906131758 | 63 | 274 | 3.0 | 17.0 | 0.00 | 0.00 | 0.00 | 56 | 1018.3 |
| 20260906131253 | 62 | 247 | 9.0 | 19.0 | 0.00 | 0.00 | 0.00 | 55 | 1018.2 |
| 20260906130748 | 63 | 243 | 4.0 | 19.0 | 0.00 | 0.00 | 0.00 | 55 | 1018.2 |
| 20260906130243 | 63 | 243 | 14.0 | 19.0 | 0.00 | 0.00 | 0.00 | 53 | 1018.2 |
| 20260906125738 | 65 | 309 | 14.0 | 20.0 | 0.00 | 0.00 | 0.00 | 53 | 1018.2 |
| 20260906125232 | 65 | 283 | 8.0 | 19.0 | 0.00 | 0.00 | 0.00 | 56 | 1018.4 |
| 20260906124727 | 64 | 315 | 6.0 | 12.0 | 0.00 | 0.00 | 0.00 | 58 | 1018.1 |
| 20260906124222 | 62 | 213 | 10.0 | 15.0 | 0.00 | 0.00 | 0.00 | 58 | 1018.0 |
| 20260906123717 | 62 | 238 | 11.0 | 20.0 | 0.00 | 0.00 | 0.00 | 57 | 1018.0 |
| 20260906123212 | 62 | 261 | 12.0 | 13.0 | 0.00 | 0.00 | 0.00 | 58 | 1018.1 |
| 20260906122706 | 62 | 342 | 11.0 | 11.0 | 0.00 | 0.00 | 0.00 | 58 | 1018.0 |
| 20260906122201 | 62 | 15 | 10.0 | 15.0 | 0.00 | 0.00 | 0.00 | 57 | 1018.0 |
| 20260906121656 | 63 | 265 | 15.0 | 19.0 | 0.00 | 0.00 | 0.00 | 58 | 1018.0 |
| 20260906121151 | 63 | 270 | 11.0 | 16.0 | 0.00 | 0.00 | 0.00 | 57 | 1017.9 |
| 20260906120646 | 63 | 265 | 5.0 | 20.0 | 0.00 | 0.00 | 0.00 | 56 | 1018.1 |
| 20260906120140 | 63 | 279 | 22.0 | 24.0 | 0.00 | 0.00 | 0.00 | 57 | 1018.1 |
| 20260906115635 | 63 | 252 | 9.0 | 21.0 | 0.00 | 0.00 | 0.00 | 59 | 1018.0 |
| 20260906115130 | 62 | 252 | 14.0 | 17.0 | 0.00 | 0.00 | 0.00 | 58 | 1017.8 |
| 20260906114625 | 62 | 315 | 13.0 | 15.0 | 0.00 | 0.00 | 0.00 | 56 | 1017.7 |
| 20260906114120 | 62 | 15 | 3.0 | 14.0 | 0.00 | 0.00 | 0.00 | 56 | 1017.8 |
| 20260906113614 | 63 | 270 | 20.0 | 26.0 | 0.00 | 0.00 | 0.00 | 54 | 1017.6 |
| 20260906113109 | 64 | 265 | 8.0 | 16.0 | 0.00 | 0.00 | 0.00 | 54 | 1017.6 |
| 20260906112604 | 65 | 297 | 7.0 | 13.0 | 0.00 | 0.00 | 0.00 | 54 | 1017.5 |
| 20260906112059 | 65 | 297 | 9.0 | 13.0 | 0.00 | 0.00 | 0.00 | 54 | 1017.4 |
| 20260906111554 | 65 | 261 | 9.0 | 17.0 | 0.00 | 0.00 | 0.00 | 54 | 1017.4 |
| 20260906111048 | 65 | 283 | 9.0 | 15.0 | 0.00 | 0.00 | 0.00 | 54 | 1017.4 |
| 20260906110543 | 65 | 270 | 12.0 | 13.0 | 0.00 | 0.00 | 0.00 | 54 | 1017.3 |
| 20260906110038 | 65 | 270 | 13.0 | 13.0 | 0.00 | 0.00 | 0.00 | 55 | 1017.1 |
| 20260906105533 | 64 | 315 | 9.0 | 15.0 | 0.00 | 0.00 | 0.00 | 56 | 1017.1 |
| 20260906105028 | 65 | 279 | 12.0 | 15.0 | 0.00 | 0.00 | 0.00 | 55 | 1017.2 |
| 20260906104523 | 65 | 9 | 8.0 | 13.0 | 0.00 | 0.00 | 0.00 | 55 | 1017.0 |
| 20260906104017 | 66 | 279 | 15.0 | 17.0 | 0.00 | 0.00 | 0.00 | 55 | 1016.9 |
| 20260906103512 | 66 | 288 | 4.0 | 17.0 | 0.00 | 0.00 | 0.00 | 56 | 1016.9 |
| 20260906103007 | 65 | 337 | 8.0 | 16.0 | 0.00 | 0.00 | 0.00 | 56 | 1016.8 |
| 20260906102502 | 65 | 297 | 5.0 | 11.0 | 0.00 | 0.00 | 0.00 | 57 | 1016.8 |
| 20260906101957 | 65 | 292 | 9.0 | 14.0 | 0.00 | 0.00 | 0.00 | 56 | 1016.7 |
| 20260906101451 | 64 | 261 | 9.0 | 10.0 | 0.00 | 0.00 | 0.00 | 57 | 1016.6 |
| 20260906100946 | 65 | 265 | 15.0 | 17.0 | 0.00 | 0.00 | 0.00 | 56 | 1016.6 |
| 20260906100441 | 65 | 261 | 5.0 | 21.0 | 0.00 | 0.00 | 0.00 | 55 | 1016.6 |
| 20260906095936 | 66 | 256 | 9.0 | 18.0 | 0.00 | 0.00 | 0.00 | 55 | 1016.5 |
| 20260906095431 | 67 | 255 | 8.0 | 15.0 | 0.00 | 0.00 | 0.00 | 55 | 1016.5 |
| 20260906094925 | 67 | 319 | 6.0 | 10.0 | 0.00 | 0.00 | 0.00 | 55 | 1016.4 |
| 20260906094420 | 67 | 252 | 7.0 | 13.0 | 0.00 | 0.00 | 0.00 | 57 | 1016.4 |
| 20260906093915 | 66 | 351 | 3.0 | 12.0 | 0.00 | 0.00 | 0.00 | 57 | 1016.4 |
| 20260906093410 | 66 | 270 | 6.0 | 14.0 | 0.00 | 0.00 | 0.00 | 57 | 1016.2 |
| 20260906092905 | 66 | 67 | 4.0 | 9.0 | 0.00 | 0.00 | 0.00 | 58 | 1016.2 |
| 20260906092359 | 65 | 0 | 11.0 | 17.0 | 0.00 | 0.00 | 0.00 | 57 | 1016.2 |
| 20260906091854 | 66 | 135 | 6.0 | 17.0 | 0.00 | 0.00 | 0.00 | 55 | 1016.1 |
| 20260906091349 | 66 | 202 | 4.0 | 10.0 | 0.00 | 0.00 | 0.00 | 58 | 1016.0 |
| 20260906090844 | 67 | 288 | 7.0 | 12.0 | 0.00 | 0.00 | 0.00 | 56 | 1015.8 |
| 20260906090339 | 67 | 315 | 4.0 | 8.0 | 0.00 | 0.00 | 0.00 | 59 | 1015.9 |
| 20260906085833 | 66 | 225 | 2.0 | 11.0 | 0.00 | 0.00 | 0.00 | 59 | 1015.9 |
| 20260906085328 | 65 | 319 | 3.0 | 14.0 | 0.00 | 0.00 | 0.00 | 58 | 1015.8 |
| 20260906084823 | 66 | 225 | 6.0 | 11.0 | 0.00 | 0.00 | 0.00 | 58 | 1015.9 |
| 20260906084318 | 66 | 0 | 2.0 | 9.0 | 0.00 | 0.00 | 0.00 | 59 | 1015.7 |
| 20260906083813 | 66 | 261 | 6.0 | 10.0 | 0.00 | 0.00 | 0.00 | 58 | 1015.6 |
| 20260906083307 | 66 | 252 | 3.0 | 10.0 | 0.00 | 0.00 | 0.00 | 59 | 1015.7 |
| 20260906082802 | 65 | 320 | 5.0 | 11.0 | 0.00 | 0.00 | 0.00 | 61 | 1015.7 |
| 20260906082257 | 65 | 297 | 7.0 | 12.0 | 0.00 | 0.00 | 0.00 | 61 | 1015.5 |
| 20260906081752 | 65 | 301 | 7.0 | 11.0 | 0.00 | 0.00 | 0.01 | 60 | 1015.5 |
| 20260906081247 | 66 | 37 | 6.0 | 19.0 | 0.00 | 0.00 | 0.01 | 60 | 1015.4 |
| 20260906080742 | 65 | 15 | 4.0 | 10.0 | 0.00 | 0.00 | 0.01 | 61 | 1015.3 |
| 20260906080236 | 65 | 337 | 4.0 | 6.0 | 0.00 | 0.00 | 0.01 | 63 | 1015.3 |
| 20260906075731 | 65 | 301 | 5.0 | 15.0 | 0.00 | 0.00 | 0.01 | 63 | 1015.3 |
| 20260906075226 | 65 | 261 | 9.0 | 14.0 | 0.00 | 0.00 | 0.01 | 63 | 1015.1 |
| 20260906074721 | 64 | 351 | 4.0 | 11.0 | 0.00 | 0.00 | 0.01 | 64 | 1015.0 |
| 20260906074216 | 64 | 261 | 10.0 | 14.0 | 0.00 | 0.00 | 0.01 | 63 | 1014.9 |
| 20260906073710 | 64 | 157 | 2.0 | 10.0 | 0.00 | 0.00 | 0.01 | 65 | 1014.9 |
| 20260906073205 | 64 | 348 | 3.0 | 12.0 | 0.00 | 0.00 | 0.01 | 65 | 1014.8 |
| 20260906072700 | 64 | 202 | 5.0 | 12.0 | 0.00 | 0.00 | 0.01 | 65 | 1014.7 |
| 20260906072155 | 64 | 319 | 12.0 | 13.0 | 0.00 | 0.00 | 0.01 | 66 | 1014.6 |
| 20260906071650 | 64 | 279 | 4.0 | 7.0 | 0.00 | 0.00 | 0.01 | 67 | 1014.6 |
| 20260906071144 | 63 | 270 | 12.0 | 12.0 | 0.00 | 0.00 | 0.01 | 68 | 1014.6 |
| 20260906070639 | 63 | 288 | 6.0 | 8.0 | 0.00 | 0.00 | 0.01 | 68 | 1014.4 |
| 20260906070134 | 63 | 297 | 6.0 | 8.0 | 0.00 | 0.00 | 0.01 | 68 | 1014.4 |
| 20260906065629 | 63 | 292 | 6.0 | 12.0 | 0.00 | 0.00 | 0.01 | 68 | 1014.4 |
| 20260906065124 | 62 | 283 | 4.0 | 9.0 | 0.00 | 0.00 | 0.01 | 70 | 1014.2 |
| 20260906064618 | 62 | 306 | 10.0 | 14.0 | 0.00 | 0.00 | 0.01 | 70 | 1014.1 |
| 20260906064113 | 62 | 310 | 3.0 | 9.0 | 0.00 | 0.00 | 0.01 | 72 | 1014.3 |
| 20260906063608 | 62 | 315 | 5.0 | 8.0 | 0.00 | 0.00 | 0.01 | 74 | 1014.2 |
| 20260906063103 | 62 | 288 | 11.0 | 12.0 | 0.00 | 0.00 | 0.01 | 73 | 1014.0 |
| 20260906062558 | 61 | 324 | 4.0 | 8.0 | 0.00 | 0.00 | 0.01 | 75 | 1014.1 |
| 20260906062052 | 61 | 297 | 4.0 | 9.0 | 0.00 | 0.00 | 0.01 | 76 | 1014.0 |
| 20260906061547 | 61 | 270 | 2.0 | 9.0 | 0.00 | 0.00 | 0.01 | 77 | 1013.9 |
| 20260906061042 | 60 | 202 | 3.0 | 8.0 | 0.00 | 0.00 | 0.01 | 76 | 1013.9 |
| 20260906060537 | 60 | 337 | 11.0 | 11.0 | 0.00 | 0.00 | 0.01 | 79 | 1013.9 |
| 20260906060032 | 60 | 236 | 7.0 | 9.0 | 0.00 | 0.00 | 0.01 | 81 | 1013.9 |
| 20260906055526 | 60 | 306 | 6.0 | 9.0 | 0.00 | 0.00 | 0.01 | 83 | 1013.8 |
| 20260906055021 | 59 | 9 | 2.0 | 8.0 | 0.00 | 0.00 | 0.01 | 85 | 1013.7 |
| 20260906054517 | 58 | 265 | 4.0 | 4.0 | 0.00 | 0.00 | 0.01 | 86 | 1013.5 |
| 20260906054011 | 58 | 315 | 3.0 | 9.0 | 0.00 | 0.00 | 0.01 | 87 | 1013.6 |
| 20260906053506 | 57 | 31 | 1.0 | 5.0 | 0.00 | 0.00 | 0.01 | 88 | 1013.4 |
| 20260906053000 | 56 | 301 | 2.0 | 11.0 | 0.00 | 0.00 | 0.01 | 88 | 1013.2 |
| 20260906052455 | 55 | 36 | 2.0 | 5.0 | 0.00 | 0.00 | 0.01 | 87 | 1013.2 |
| 20260906051951 | 55 | 0 | 0.0 | 9.0 | 0.00 | 0.00 | 0.01 | 87 | 1013.1 |
| 20260906051445 | 55 | 274 | 5.0 | 6.0 | 0.00 | 0.00 | 0.01 | 88 | 1013.0 |
| 20260906050940 | 54 | 252 | 1.0 | 6.0 | 0.00 | 0.00 | 0.01 | 88 | 1013.0 |
| 20260906050435 | 54 | 288 | 1.0 | 7.0 | 0.00 | 0.00 | 0.01 | 88 | 1013.0 |
| 20260906045929 | 54 | 135 | 3.0 | 6.0 | 0.00 | 0.00 | 0.01 | 88 | 1012.9 |
| 20260906045425 | 54 | 262 | 4.0 | 8.0 | 0.00 | 0.00 | 0.01 | 89 | 1012.8 |
| 20260906044919 | 54 | 54 | 3.0 | 6.0 | 0.00 | 0.00 | 0.01 | 89 | 1012.7 |
| 20260906044414 | 54 | 351 | 1.0 | 7.0 | 0.00 | 0.00 | 0.01 | 89 | 1012.7 |
| 20260906043908 | 54 | 135 | 4.0 | 12.0 | 0.00 | 0.00 | 0.01 | 89 | 1012.7 |
| 20260906043403 | 54 | 261 | 4.0 | 8.0 | 0.00 | 0.00 | 0.01 | 89 | 1012.6 |
| 20260906042859 | 54 | 180 | 2.0 | 7.0 | 0.00 | 0.00 | 0.01 | 89 | 1012.5 |
| 20260906042353 | 54 | 352 | 5.0 | 6.0 | 0.00 | 0.00 | 0.01 | 89 | 1012.4 |
| 20260906041848 | 54 | 225 | 1.0 | 5.0 | 0.00 | 0.00 | 0.01 | 90 | 1012.3 |
| 20260906041343 | 54 | 328 | 3.0 | 7.0 | 0.00 | 0.00 | 0.01 | 89 | 1012.2 |
| 20260906040837 | 54 | 315 | 2.0 | 8.0 | 0.00 | 0.00 | 0.01 | 90 | 1012.1 |
| 20260906040333 | 54 | 328 | 2.0 | 7.0 | 0.00 | 0.00 | 0.01 | 90 | 1012.0 |
| 20260906035827 | 54 | 45 | 2.0 | 7.0 | 0.00 | 0.00 | 0.01 | 91 | 1012.0 |
| 20260906035322 | 54 | 0 | 3.0 | 8.0 | 0.00 | 0.00 | 0.01 | 91 | 1011.9 |
| 20260906034817 | 54 | 303 | 6.0 | 6.0 | 0.00 | 0.00 | 0.01 | 91 | 1011.8 |
| 20260906034311 | 54 | 297 | 3.0 | 4.0 | 0.00 | 0.00 | 0.01 | 91 | 1011.7 |
| 20260906033807 | 54 | 252 | 5.0 | 7.0 | 0.00 | 0.00 | 0.01 | 91 | 1011.7 |
| 20260906033301 | 54 | 4 | 4.0 | 6.0 | 0.00 | 0.00 | 0.01 | 91 | 1011.6 |
| 20260906032756 | 54 | 351 | 4.0 | 8.0 | 0.00 | 0.00 | 0.01 | 91 | 1011.5 |
| 20260906032251 | 54 | 274 | 7.0 | 7.0 | 0.00 | 0.00 | 0.01 | 92 | 1011.3 |
| 20260906031745 | 54 | 297 | 6.0 | 8.0 | 0.00 | 0.00 | 0.01 | 92 | 1011.5 |
| 20260906031241 | 53 | 240 | 2.0 | 11.0 | 0.00 | 0.00 | 0.01 | 92 | 1011.4 |
| 20260906030735 | 53 | 324 | 3.0 | 10.0 | 0.00 | 0.00 | 0.01 | 92 | 1011.2 |
| 20260906030230 | 53 | 288 | 5.0 | 9.0 | 0.00 | 0.00 | 0.01 | 92 | 1011.3 |
| 20260906025725 | 53 | 301 | 2.0 | 8.0 | 0.00 | 0.00 | 0.01 | 92 | 1011.2 |
| 20260906025219 | 53 | 225 | 4.0 | 7.0 | 0.00 | 0.00 | 0.01 | 92 | 1011.3 |
| 20260906024715 | 53 | 256 | 2.0 | 7.0 | 0.00 | 0.00 | 0.01 | 92 | 1011.2 |
| 20260906024209 | 53 | 9 | 4.0 | 6.0 | 0.00 | 0.00 | 0.01 | 92 | 1011.1 |
| 20260906023704 | 53 | 18 | 2.0 | 5.0 | 0.00 | 0.00 | 0.01 | 92 | 1011.0 |
| 20260906023159 | 53 | 310 | 1.0 | 7.0 | 0.00 | 0.00 | 0.01 | 92 | 1011.1 |
| 20260906022653 | 53 | 279 | 9.0 | 9.0 | 0.00 | 0.00 | 0.01 | 92 | 1011.0 |
| 20260906022149 | 53 | 180 | 2.0 | 5.0 | 0.00 | 0.00 | 0.01 | 91 | 1011.0 |
| 20260906021643 | 52 | 297 | 7.0 | 7.0 | 0.00 | 0.00 | 0.01 | 92 | 1011.0 |
| 20260906021138 | 52 | 306 | 2.0 | 7.0 | 0.00 | 0.00 | 0.01 | 92 | 1010.8 |
| 20260906020633 | 52 | 30 | 2.0 | 6.0 | 0.00 | 0.00 | 0.01 | 92 | 1010.9 |
| 20260906020127 | 51 | 4 | 2.0 | 5.0 | 0.00 | 0.00 | 0.01 | 91 | 1010.8 |
| 20260906015623 | 51 | 292 | 0.0 | 6.0 | 0.00 | 0.00 | 0.01 | 92 | 1010.7 |
| 20260906015117 | 50 | 261 | 4.0 | 7.0 | 0.00 | 0.00 | 0.01 | 91 | 1010.8 |
| 20260906014612 | 49 | 252 | 2.0 | 5.0 | 0.00 | 0.00 | 0.01 | 91 | 1010.7 |
| 20260906014107 | 48 | 337 | 5.0 | 5.0 | 0.00 | 0.00 | 0.01 | 90 | 1010.6 |
| 20260906013601 | 48 | 90 | 0.0 | 3.0 | 0.00 | 0.00 | 0.01 | 90 | 1010.6 |
| 20260906013057 | 47 | 234 | 1.0 | 3.0 | 0.00 | 0.00 | 0.01 | 90 | 1010.6 |
| 20260906012551 | 46 | 0 | 0.0 | 3.0 | 0.00 | 0.00 | 0.01 | 88 | 1010.5 |
| 20260906012046 | 45 | 76 | 0.0 | 2.0 | 0.00 | 0.00 | 0.01 | 87 | 1010.6 |
| 20260906011541 | 45 | 85 | 0.0 | 0.0 | 0.00 | 0.00 | 0.01 | 87 | 1010.6 |
| 20260906011035 | 45 | 0 | 0.0 | 0.0 | 0.00 | 0.00 | 0.01 | 87 | 1010.5 |
| 20260906010531 | 45 | 45 | 0.0 | 1.0 | 0.00 | 0.00 | 0.01 | 87 | 1010.4 |
| 20260906010025 | 45 | 45 | 1.0 | 1.0 | 0.00 | 0.00 | 0.01 | 86 | 1010.4 |
| 20260906005520 | 45 | 0 | 0.0 | 2.0 | 0.00 | 0.00 | 0.01 | 86 | 1010.4 |
| 20260906005015 | 45 | 13 | 2.0 | 2.0 | 0.00 | 0.00 | 0.01 | 86 | 1010.2 |
| 20260906004509 | 45 | 45 | 0.0 | 0.0 | 0.00 | 0.00 | 0.01 | 85 | 1010.1 |
| 20260906004005 | 46 | 45 | 0.0 | 1.0 | 0.00 | 0.00 | 0.01 | 86 | 1010.1 |
| 20260906003459 | 46 | 45 | 0.0 | 1.0 | 0.00 | 0.00 | 0.01 | 86 | 1010.0 |
| 20260906002954 | 46 | 0 | 1.0 | 2.0 | 0.00 | 0.00 | 0.01 | 86 | 1009.9 |
| 20260906002449 | 46 | 0 | 2.0 | 3.0 | 0.00 | 0.00 | 0.01 | 85 | 1009.8 |
| 20260906001943 | 46 | 0 | 1.0 | 3.0 | 0.00 | 0.00 | 0.01 | 85 | 1009.8 |
| 20260906001439 | 46 | 45 | 2.0 | 2.0 | 0.00 | 0.00 | 0.01 | 85 | 1009.8 |
| 20260906000933 | 47 | 45 | 0.0 | 0.0 | 0.00 | 0.00 | 0.01 | 85 | 1009.8 |
| 20260906000428 | 47 | 45 | 0.0 | 1.0 | 0.00 | 0.00 | 0.01 | 85 | 1009.9 |
| 20260905235923 | 47 | 45 | 1.0 | 2.0 | 0.00 | 0.00 | 0.01 | 85 | 1009.8 |
| 20260905235417 | 47 | 90 | 0.0 | 0.0 | 0.00 | 0.00 | 0.01 | 85 | 1009.7 |
| 20260905234913 | 47 | 90 | 0.0 | 0.0 | 0.00 | 0.00 | 0.01 | 84 | 1009.6 |
| 20260905234407 | 47 | 90 | 0.0 | 1.0 | 0.00 | 0.00 | 0.01 | 85 | 1009.5 |
| 20260905233902 | 47 | 45 | 0.0 | 1.0 | 0.00 | 0.00 | 0.01 | 84 | 1009.5 |
| 20260905233357 | 48 | 45 | 1.0 | 1.0 | 0.00 | 0.00 | 0.01 | 85 | 1009.6 |
| 20260905232852 | 47 | 45 | 0.0 | 0.0 | 0.00 | 0.00 | 0.01 | 84 | 1009.5 |
| 20260905232347 | 48 | 45 | 0.0 | 0.0 | 0.00 | 0.00 | 0.01 | 83 | 1009.4 |
| 20260905231841 | 48 | 45 | 0.0 | 0.0 | 0.00 | 0.00 | 0.01 | 84 | 1009.4 |
| 20260905231336 | 48 | 45 | 0.0 | 0.0 | 0.00 | 0.00 | 0.01 | 83 | 1009.3 |
| 20260905230831 | 49 | 90 | 0.0 | 0.0 | 0.00 | 0.00 | 0.01 | 83 | 1009.3 |
| 20260905230326 | 49 | 90 | 0.0 | 0.0 | 0.00 | 0.00 | 0.01 | 83 | 1009.2 |
| 20260905225821 | 49 | 90 | 0.0 | 3.0 | 0.00 | 0.00 | 0.01 | 83 | 1009.2 |
| 20260905225315 | 50 | 90 | 1.0 | 2.0 | 0.00 | 0.00 | 0.01 | 83 | 1009.2 |
| 20260905224810 | 50 | 90 | 2.0 | 2.0 | 0.00 | 0.00 | 0.01 | 83 | 1009.1 |
| 20260905224305 | 50 | 135 | 0.0 | 0.0 | 0.00 | 0.00 | 0.01 | 83 | 1009.0 |
| 20260905223759 | 50 | 135 | 0.0 | 0.0 | 0.00 | 0.00 | 0.01 | 83 | 1008.9 |
| 20260905223255 | 50 | 0 | 0.0 | 0.0 | 0.00 | 0.00 | 0.01 | 83 | 1008.8 |
| 20260905222749 | 51 | 0 | 0.0 | 4.0 | 0.00 | 0.00 | 0.01 | 83 | 1008.8 |
| 20260905222244 | 51 | 0 | 1.0 | 2.0 | 0.00 | 0.00 | 0.01 | 83 | 1008.7 |
| 20260905221739 | 51 | 0 | 1.0 | 2.0 | 0.00 | 0.00 | 0.01 | 83 | 1008.7 |
| 20260905221233 | 51 | 0 | 2.0 | 4.0 | 0.00 | 0.00 | 0.01 | 83 | 1008.6 |